STARLINK-1492 (45779 NORAD) Tracking and Keplerian Element Data

This shows tracking and keplerian element data for the satellite.

Feedback or suggestion? Click here.




ElementValue
Catalog45779
NameSTARLINK-1492
Epoch Orbit462
Epoch Day186.50001157
Epoch Year2020
RAAN192.6945
Inclination53.0004
Eccentricity0.000199
Argument of Perigee78.4842
Mean Anonmoly133.4942
Mean Motion15.62805421
Decay Rate-0.00047019
L11 45779U 20038BB 20186.50001157 -.00047019 00000-0 -50953-3 0 9999
L22 45779 53.0004 192.6945 0001990 78.4842 133.4942 15.62805421 4626

Live tracking and technical data element details for STARLINK-1492 (NORAD 45779). STARLINK-1492 can be tracked NOW for your location showing map with azimuth and elevation plus other details from your city location.

Track the satellite on the map from your city or location and see movement details for azimuth, elevation, latitude, longitude, range, height, and movement on the map or in text.







IsCatalogInMostPopularTable: catalog: 45779, numindb: 5
Update: records affected: 1



GetName: 45779 STARLINK-1492

Hit Count: updated at: Sun, 05 Jul 2020 16:10:12 GMT